User: anonymous   Login
Location: Plymouth
(43.7570°N, 71.6890°W)
Time: 03:02:40
(UTC-04:00)
Language:

Meteor 1-28 Rocket - Orbit

View from above orbital plane
View from above orbital plane
View from above satellite
View from above satellite

Ground track
Ground track

The orbit data is extracted from the following two-line orbital elements,

1 10114U 77057B   16269.17332821  .00000739  00000-0  41153-4 0  9991
2 10114  97.2005  98.8825 0014650 159.1118 201.0717 15.16409729143385
Epoch (UTC): 25 September 2016 04:09:35
Eccentricity: 0.0014650
inclination: 97.2005°
perigee height: 506 km
apogee height: 527 km
right ascension of ascending node: 98.8825°
argument of perigee: 159.1118°
revolutions per day: 15.16409729
mean anomaly at epoch: 201.0717°
orbit number at epoch: 14338

The dashed part of the orbit path shows where the satellite is in the earth's shadow,  

DLR